Regional Weather Roundup
Issued by NWS

Home | Current Version | Previous Version | Graphics & Text | Print | Product List | Glossary On
Versions: 1 2 3 4 5 6 7 8 9 10 11 12 13 14 15 16 17 18 19 20 21 22 23 24 25 26 27 28 29 30 31 32 33 34 35 36 37 38 39 40 41 42 43 44 45 46 47 48 49 50
000
ASUS43 KIND 050809
RWRIN

WEATHER ROUNDUP FOR INDIANA
NATIONAL WEATHER SERVICE INDIANAPOLIS IN
400 AM EDT SUN JUL 05 2015

NOTE: "FAIR" INDICATES FEW OR NO CLOUDS BELOW 12,000 FEET WITH NO
SIGNIFICANT WEATHER AND/OR OBSTRUCTIONS TO VISIBILITY.

* - STATION DOES NOT REPORT WEATHER SUCH AS PRECIPITATION OR FOG.

+ - STATION NOT QUALITY CONTROLLED BY THE NATIONAL WEATHER SERVICE.
    USE DATA WITH CAUTION...ESPECIALLY DEWPOINT AND RELATIVE
    HUMIDITY OBSERVATIONS.

INZ001>003-010>013-019-020-050900-
NORTHWEST INDIANA

CITY           SKY/WX    TMP DP  RH WIND       PRES   REMARKS
GARY /AIRPORT/ FOG      N/A N/A N/A CALM      30.07R VSB 1/2
KNOX *+        CLEAR     59  59 100 CALM      30.07R
LA PORTE +     CLEAR     61  61 100 CALM      30.08R FOG
MICHIGAN CITY+   N/A     59  59 100 CALM      30.07S FOG
MONTICELLO +   CLEAR     62  62 100 CALM      30.05F FOG
RENSSELAER +   CLEAR     61  61 100 CALM      30.07S
VALPARAISO     CLEAR     61  59  93 CALM      30.08R

$$

LMZ046-743>745-050900-
SOUTHERN LAKE MICHIGAN

STATION/POSITION TIME  TEMP    WIND        PRES    WAVE
                       AIR SEA DIR/SP/G            HT
                 (UTC) (F)     (DEG/KT/KT) (MB)    (FT)
BURNS HARBOR     0800   68     190/  7/  8 1018.3S
MICHIGAN CITY    0800   69     140/  8/ 11   N/A
5NW MICH CITY    0800   65 64  180/  4/  4   N/A     0

$$

INZ004-005-014>016-021>024-050900-
NORTH CENTRAL INDIANA

CITY           SKY/WX    TMP DP  RH WIND       PRES   REMARKS
GOSHEN         CLEAR     59  57  93 CALM      30.08R FOG
LOGANSPORT +   CLEAR     61  57  88 CALM      30.07F FOG
PERU/GRISSOM   CLEAR     62  61  97 CALM      30.05F FOG
ROCHESTER +    CLEAR     63  63 100 CALM      30.08R FOG
SOUTH BEND     CLEAR     60  56  86 N3        30.09R FOG
WARSAW +         N/A     59  59 100 CALM      30.08R FOG

$$

INZ006>009-017-018-025>027-050900-
NORTHEAST INDIANA

CITY           SKY/WX    TMP DP  RH WIND       PRES   REMARKS
ANGOLA *+        N/A     57  57 100 CALM      30.08S
AUBURN +       CLEAR     57  55  94 CALM      30.08S FOG
FORT WAYNE     CLEAR     61  59  93 CALM      30.08S
HUNTINGTON +   CLEAR     60  60  97 CALM      30.06F FOG

$$

INZ028-029-035-036-043>045-051>053-050900-
WEST CENTRAL INDIANA

CITY           SKY/WX    TMP DP  RH WIND       PRES   REMARKS
CRAWFORDSVL +  PTCLDY    56  56  98 CALM      30.06S FOG
GREENCASTLE +  MOCLDY    63  55  77 CALM      30.06S
LAFAYETTE      CLEAR     61  59  93 CALM      30.05F FOG
TERRE HAUTE    PTCLDY    64  61  90 CALM      30.04S

$$

INZ030>032-037>040-046>048-054>057-064-065-050900-
CENTRAL INDIANA

CITY           SKY/WX    TMP DP  RH WIND       PRES   REMARKS
CP ATTERBURY + FOG       61  59  94 CALM      30.06S VSB 3/4
FISHERS *+       N/A     59  59 100 CALM      30.07S
FRANKFORT +    CLEAR    N/A N/A N/A CALM      30.08S
GREENWOOD *+   MOCLDY    63  59  88 CALM      30.06F
INDIANAPOLIS   MOCLDY    67  59  75 N5        30.04F HAZE
-EAGLE CREEK   PTCLDY    63  60  90 CALM      30.05F FOG
KOKOMO *+      CLEAR     61  55  82 CALM      30.06F
MARION +         N/A     60  59  97 CALM      30.07F FOG
MT COMFORT *+  MOCLDY    61 N/A N/A CALM      30.07S
SHELBYVILLE    MOCLDY    64  60  87 CALM      30.05S FOG
ZIONSVILLE +   PTCLDY    61  58  90 CALM      30.07S FOG

$$

INZ033-034-041-042-049-050-058-059-050900-
EAST CENTRAL INDIANA

CITY           SKY/WX    TMP DP  RH WIND       PRES   REMARKS
MUNCIE         PTCLDY    61  59  93 CALM      30.07S FOG

$$

INZ060-061-067>069-081>083-085>088-050900-
SOUTHWEST INDIANA

CITY           SKY/WX    TMP DP  RH WIND       PRES   REMARKS
EVANSVILLE     CLOUDY    71  68  90 CALM      30.02S SMOKE
HUNTINGBURG *+ CLOUDY    70  66  88 CALM      30.02S
WASHINGTON +   CLOUDY    66  63  88 CALM      30.02F FOG

$$

INZ062-063-066-070>080-084-089>092-050900-
SOUTH CENTRAL AND SOUTHEAST INDIANA

CITY           SKY/WX    TMP DP  RH WIND       PRES   REMARKS
BLOOMINGTON    MOCLDY    63  62  97 CALM      30.05S FOG
MADISON *+     CLOUDY    68  63  83 NE3       30.06S
NORTH VERNON + CLOUDY    66  66 100 NE5       30.05F FOG
SEYMOUR +      CLOUDY    68  66  94 CALM      30.03F FOG

$$



USA.gov is the U.S. government's official web portal to all federal, state and local government web resources and services.